Вернуться в каталог

CZ-4 DEB

АктивенSSO
NORAD 35567·DEBRIS·🇨🇳 China

Запущен Sep 19, 2007 с Taiyuan Satellite Launch Center

Loading…

Ближайшие Пролёты (ближайшие 24 часа)

TLE

УстаревающийSource: Space-Track

Эпоха: Sep 6, 2026, 14:23 UTC

1 35567U 07042G   26249.59964990  .00000424  00000-0  22420-3 0  9996
2 35567  98.8856 208.9546 0014275 321.2455  38.7696 14.19074563674339

Отслеживайте CZ-4 DEB в реальном времени с AllMySat

Download on the App Store